Flag for Slovakia Weather past 2 weeks in Prešov, Slovakia

Now
77 °F

Passing clouds.


Feels Like: 78 °F
Forecast: 58 / 70 °F
Wind: 15 mph from Southwest

Location: Kosice - Barca

Current Time: Jul 28, 2015 at 4:27:45 PM

Latest Report: Jul 28, 2015 at 4:00 PM


Visibility: N/A

Pressure: 29.80 "Hg

Humidity: 42%

Dew point: 52 °F

Location of PrešovLocation

Historic Weather in Prešov — Graph

°F

Prešov temperature yesterday

Maximum temperature yesterday: 75 °F (at 1:00 PM)
Minimum temperature yesterday: 59 °F (at 4:00 AM)
Average temperature yesterday: 66 °F

Past Weeks' High & Low Weather Summary

 TemperatureHumidityPressure
High93 °F (Jul 23, 1:30 PM)100% (Jul 17, 6:30 PM)30.15 "Hg (Jul 17, 6:30 PM)
Low59 °F (Jul 14, 12:30 AM)34% (Jul 23, 2:30 PM)29.71 "Hg (Jul 25, 5:00 PM)
Average73 °F69%29.95 "Hg
* Reported Jul 13 3:00 PM — Jul 28 3:30 PM, Prešov, Weather by CustomWeather, © 2015

Note: Actual official high and low records may vary slightly from our data, if they occured in-between our weather recording intervals... More about our weather records

Advertising

Prešov weather history for previous 24 hours

 ConditionsComfort  
Time TempWeatherWind HumidityBarometerVisibility
3:30 PM
Tue, Jul 28
79 °FPassing clouds.16 mph39%29.80 "HgN/A
3:00 PM77 °FSunny.16 mph42%29.80 "Hg10 mi
2:30 PM77 °FPassing clouds.15 mph42%29.80 "HgN/A
2:00 PM77 °FScattered clouds.15 mph44%29.80 "HgN/A
1:30 PM73 °FScattered clouds.14 mph44%29.80 "HgN/A
1:00 PM75 °FScattered clouds.15 mph44%29.80 "HgN/A
12:30 PM73 °FScattered clouds.12 mph57%29.83 "HgN/A
12:00 PM72 °FScattered clouds.9 mph65%29.83 "HgN/A
11:30 AM70 °FPassing clouds.10 mph64%29.83 "HgN/A
11:00 AM68 °FPassing clouds.7 mph73%29.83 "Hg4 mi
10:30 AM68 °FFog.6 mph73%29.83 "Hg3 mi
10:00 AM66 °FSnow. Scattered clouds.6 mph78%29.83 "HgN/A
9:30 AM64 °FPassing clouds.5 mph83%29.83 "HgN/A
9:00 AM64 °FPassing clouds.1 mph78%29.83 "HgN/A
8:30 AM61 °FPartly sunny.3 mph88%29.83 "HgN/A
8:00 AM61 °FPartly sunny.2 mph88%29.83 "Hg6 mi
7:30 AM61 °FPartly sunny.2 mph88%29.83 "Hg6 mi
7:00 AM59 °FPartly sunny.1 mph94%29.83 "Hg6 mi
6:30 AM59 °FPartly sunny.1 mph88%29.83 "Hg6 mi
6:00 AM59 °FPassing clouds.2 mph94%29.80 "Hg5 mi
5:30 AM59 °FPassing clouds.1 mph94%29.80 "Hg6 mi
5:00 AM59 °FPassing clouds.1 mph94%29.80 "Hg4 mi
4:30 AM59 °FPassing clouds.1 mph94%29.80 "Hg4 mi
4:00 AM59 °FFog.3 mph94%29.80 "Hg3 mi
3:30 AM59 °FFog.1 mph94%29.77 "Hg3 mi
3:00 AM59 °FFog.2 mph94%29.77 "Hg3 mi
2:30 AM59 °FFog.2 mph94%29.77 "Hg3 mi
2:00 AM59 °FFog.1 mph94%29.77 "Hg3 mi
1:30 AM59 °FFog.3 mph100%29.77 "Hg3 mi
1:00 AM59 °FFog.3 mph94%29.77 "Hg3 mi
12:00 AM59 °FFog.6 mph100%29.77 "Hg3 mi
11:30 PM
Mon, Jul 27
59 °FPassing clouds.1 mph94%29.77 "HgN/A
11:00 PM59 °FPassing clouds.5 mph94%29.77 "HgN/A
10:30 PM61 °FPassing clouds.1 mph94%29.77 "HgN/A
10:00 PM63 °FPassing clouds.7 mph88%29.77 "HgN/A
9:30 PM63 °FPassing clouds.3 mph94%29.77 "HgN/A
9:00 PM63 °FPartly sunny.2 mph94%29.77 "HgN/A
8:30 PM63 °FLight rain. Partly sunny.5 mph94%29.74 "HgN/A
8:00 PM64 °FLight rain. Mostly cloudy.3 mph88%29.74 "HgN/A
7:30 PM64 °FBroken clouds.2 mph88%29.74 "HgN/A
7:00 PM64 °FLight rain. Mostly cloudy.5 mph83%29.74 "HgN/A
6:30 PM64 °FLight rain. Clear.7 mph83%29.74 "HgN/A
6:00 PM68 °FLight rain. Mostly cloudy.5 mph73%29.74 "HgN/A
5:30 PM70 °FLight rain. Partly sunny.3 mph69%29.74 "HgN/A
5:00 PM72 °FSunny.7 mph61%29.74 "Hg10 mi
4:30 PM72 °FScattered clouds.8 mph61%29.74 "HgN/A
4:00 PM73 °FScattered clouds.10 mph53%29.74 "HgN/A
Weather by CustomWeather, © 2015

See weather overviewHow to use our weather pages